Regional Weather Roundup
Issued by NWS San Diego, CA

Home | Current Version | Previous Version | Text Only | Print | Product List | Glossary On
Versions: 1 2 3 4 5 6 7 8 9 10 11 12 13 14 15 16 17 18 19 20 21 22 23 24 25 26 27 28 29 30 31 32 33 34 35 36 37 38 39 40 41 42 43 44 45 46 47 48 49 50
000
ASUS46 KSGX 301910
RWRSGX

SAN DIEGO HOURLY WEATHER ROUNDUP
NATIONAL WEATHER SERVICE SAN DIEGO CA
1200 PM PDT SAT AUG 30 2014

NOTE: "FAIR" INDICATES FEW OR NO CLOUDS BELOW 12,000 FEET WITH NO
SIGNIFICANT WEATHER AND/OR OBSTRUCTIONS TO VISIBILITY.

CAZ042-043-060-061-PZZ750-775-302000-

GREATER SAN DIEGO AREA

CITY           SKY/WX    TMP DP  RH WIND       PRES   REMARKS
LINDBERGH FLD  MOSUNNY   75  63  66 VRB7      29.84F
POINT LOMA       N/A     73  64  72 W12         N/A
NATIONAL CITY    N/A     74  66  75 SW10      29.83F
CHULA VISTA      N/A     75  67  75 W6        29.76F
IMPERIAL BEACH SUNNY     74  64  71 W9        29.83F
BROWN FIELD    SUNNY     80  62  54 NW7       29.83F
MIRAMAR MCAS   MOSUNNY   84  62  47 W8        29.83F
MONTGOMERY FLD SUNNY     80  63  55 W8        29.83F

$$

NORTH SAN DIEGO COUNTY

CITY           SKY/WX    TMP DP  RH WIND       PRES   REMARKS
CAMP PENDLETON SUNNY     79  62  56 VRB7      29.81F HAZE
OCEANSIDE AP   SUNNY     77  64  64 SW10      29.82F
OCEANSIDE HBR    N/A     71  66  84 W7        29.85F
VISTA            N/A     80  67  64 W2        29.80F
CARLSBAD       SUNNY     73  63  70 SW7       29.82F
DEL MAR          N/A     74  67  77 NW1       29.85F
LA JOLLA SCRIP   N/A     70  67  90 SW2       29.80F
FALLBROOK        N/A     86  63  46 CALM      29.81F
ESCONDIDO        N/A     90  68  48 W3        29.82F
SAN MARCOS       N/A     81  67  62 W3        29.80S
POWAY            N/A     89  64  42 W3        29.82F

$$

EAST SAN DIEGO COUNTY

CITY           SKY/WX    TMP DP  RH WIND       PRES   REMARKS
RAMONA         SUNNY     90  58  33 NW13      29.85F
SANTEE LAKES     N/A     87  66  48 CALM      29.81F
LA MESA          N/A     82  67  58 SW3       29.75F
JAMUL            N/A     87  64  45 W3        29.80F
DESCANSO N       N/A     93  40  15 W2        29.69F
MT. LAGUNA OBS   N/A     82  33  17 SW6       29.73F
CAMPO            N/A     95  36  12 SW8       29.88F

$$

ORANGE COUNTY AND THE LOS ANGELES BASIN

CITY           SKY/WX    TMP DP  RH WIND       PRES   REMARKS
JOHN WAYNE AP  MOSUNNY   82  63  52 SW9       29.83F
LAGUNA BEACH     N/A     75  66  74 SE3       29.80S
LAKE FOREST FR   N/A     83  61  46 W2        29.72F
SANTA ANA        N/A     83  68  60 CALM      29.78F
HUNTINGTON BCH   N/A     75  67  76 SW3       29.86S
LOS ALAMITOS   SUNNY     80  65  60 VRB5      29.83F
FULLERTON      SUNNY     84  61  45 VRB3      29.82F
LONG BEACH     SUNNY     80  64  58 SW3       29.83F
L.A. AP        MOSUNNY   76  64  66 W8        29.84F
L.A. DOWNTOWN  SUNNY     84  61  45 CALM      29.82F

$$

THE INLAND EMPIRE

CITY           SKY/WX    TMP DP  RH WIND       PRES   REMARKS
CORONA         SUNNY     87  61  41 W7        29.83F
CHINO          MOSUNNY   90  51  26 CALM      29.84F
ONTARIO        MOSUNNY   90  48  23 VRB3      29.84F
SAN BERNARDINO SUNNY     90  41  18 W5        29.84F
RIVERSIDE AP   SUNNY     91  51  25 VRB3      29.83F
RIV CYN CREST    N/A     87  65  47 NW3       29.80F
MORENO VALLEY    N/A     94  35  12 SW2       29.04F
MARCH ARB      SUNNY     92  38  15 N3        29.86F
HORSETHIEF CYN   N/A     94  42  16 NW5       29.82F
PERRIS           N/A     93  38  14 SW2       29.82F
MENIFEE          N/A     94  41  16 W3        29.90F
HEMET EAST       N/A     93  37  14 CALM      29.79F
FRENCH VALLEY  FAIR      91  46  21 SW5       29.85F
TEMECULA         N/A     92  52  25 S2        29.79F

$$

SAN BERNARDINO AND RIVERSIDE COUNTY MOUNTAINS

CITY           SKY/WX    TMP DP  RH WIND       PRES   REMARKS
BIG BEAR AP    SUNNY     79  21  11 W8        30.22S
ANGELUS OAKS     N/A     82  42  23 W1        29.71F
PINE COVE        N/A     84  19   9 S3        29.70F

$$

SOUTHERN DESERT INCLUDING THE COACHELLA VALLEY

CITY           SKY/WX    TMP DP  RH WIND       PRES   REMARKS
PALM SPRINGS   SUNNY    107  30   7 S5        29.74F HX  99
THOUSAND PALMS   N/A    106  38  10 SW3       29.68  HX 100
PALM DESERT      N/A    109  42  10 SE1       30.24F HX 104
THERMAL        SUNNY    107  39  10 E6        29.67F HX 101
BLYTHE         SUNNY    104  41  11 S6        29.74F HX  99
IMPERIAL AP    SUNNY    104  43  12 VRB6      29.70F HX  99
EL CENTRO NAS  SUNNY    105  47  14 CALM      29.71F HX 101
YUMA AZ        SUNNY    106  48  14 SW9       29.72F HX 102
MEXICALI       SUNNY    104  39  11 SE5       29.72  HX  98

$$

UPPER DESERT

CITY           SKY/WX    TMP DP  RH WIND       PRES   REMARKS
VICTORVILLE AP SUNNY     95  30  10 W8G16     29.92F
HESPERIA         N/A     95  27   9 N3        29.87F
APPLE VALLEY     N/A     95  28   9 W3        29.97F
PALMDALE       SUNNY     97  32  10 NW17      29.91F
LANCASTER      SUNNY     94  36  13 W25G32    29.90F
EDWARDS AFB    PTSUNNY   97  29   9 W18       29.85F
DAGGETT        SUNNY    100  19   5 W14       29.83F
29 PALMS N     SUNNY     98  29   8 SE5       29.91F
NEEDLES        SUNNY    106  38   9 CALM      29.76F HX 100

$$

REGIONAL REPORTS

CITY           SKY/WX    TMP DP  RH WIND       PRES   REMARKS
SANTA BARBARA  MOSUNNY   72  64  76 S7        29.84S
SANDBERG       SUNNY     83  37  19 N15G25    30.10F
MT. WILSON       N/A     86  32  14 MISG        N/A
LAS VEGAS NV   PTSUNNY  101  33   9 S15       29.79F HX  95
PHOENIX AZ     MOSUNNY  104  44  13 VRB3      29.79F HX  99
TIJUANA        SUNNY     81  59  47 W9        29.84F
ENSENADA NW      N/A     71  32  23 NW12      29.80F

$$

OFFSHORE ISLANDS

CITY           SKY/WX    TMP DP  RH WIND       PRES   REMARKS
CATALINA ARPT  SUNNY     83  54  36 VRB6      29.90R
SAN NICOLAS IS SUNNY    N/A N/A N/A E5        29.85F

$$

MARINE AND OFFSHORE BUOY REPORTS

STATION/POSITION SKY/WX   TEMP    WIND        PRES    SWELL
                          AIR SEA DIR/SP/G            HT/PER/DIR
                          (F)     (DEG/KT/KT) (MB)    (FT/S/D)
TANNER BANKS               66 69  320/ 14/ 16 1010.8F   5/310/ 7
S CLEMENTE BASIN           67 72  280/  4/  6 1010.3F   3/300/ 7
SAN NICOLAS IS.               65                N/A     2/190/15
SO. S. ROSA ISLA           65 67  320/ 16/ 19 1010.3F   3/ 8
W. S. BARBARA CH           62 61  320/ 16/ 19 1009.7F   3/310/16
M. S. BARBARA CH           64 67  210/  2/  2 1010.9R
S. MONICA BASIN            69 72  150/  4/  6 1010.2F   3/200/ 8
S PEDRO CHANNEL               74                N/A     2/210/15
DANA POINT                    74                N/A     2/190/14
CMP PENDLETON NS              74                N/A     2/220/15
OCEANSIDE OFFSHR              74                N/A     2/210/17
TORREY PINES OTR              74                N/A     2/200/14
LA JOLLA 1                 71 72  280/  3/  4 1010.3F
MISSION BAY BUOY              69                N/A     2/200/14
SAN DIEGO BAY                 73              1010.5F
POINT LOMA SOUTH              75                N/A     2/190/15

$$




USA.gov is the U.S. government's official web portal to all federal, state and local government web resources and services.